Location: Unspecified
(38.7273°N, 77.0677°W)
Time: 23:55:18
(UTC-04:00)

ISS - Pass Details

Date: 01 July 2021
Orbit: 419 x 421 km, 51.6° (Epoch: 03 August)

Event Time Altitude Azimuth Distance (km) Brightness Sun altitude
Exits shadow 04:29:37 10° 280° (W) 1,512 -1.3 -12.8°
Reaches altitude 10° 04:29:39 10° 280° (W) 1,499 -1.3 -12.8°
Maximum altitude 04:32:21 22° 334° (NNW) 972 -1.7 -12.5°
Drops below altitude 10° 04:35:04 10° 28° (NNE) 1,502 0.3 -12.1°
Sets 04:37:29 0° 44° (NE) 2,368 2.2 -11.7°
